Dewpoint
73 74 75 73 73 74 73 73 72 70 70 70 69 68 68 67 67 68 67 64 65 66 65 65 65 67 61 58 58 59 58 56 54 53 54 58 61 63 62 62 61 61 59
72 75 74 74 74 74 73 72 70 69 69 69 69 69 68 67 68 67 65 63 64 64 64 65 64 61 65 66 59 63 60 61 56 61 61 57 62 62 62 63 60 58 58
70 70 72 73 73 72 72 70 68 67 67 67 69 68 67 67 68 67 66 65 64 64 64 64 63 63 64 61 62 59 57 60 59 58 58 57 57 57 60 61 61 62 56
67 69 73 73 73 72 72 69 66 67 67 67 66 68 68 68 67 65 66 66 65 64 65 65 64 63 63 63 62 63 62 60 61 56 55 57 56 59 61 57 55 52 52
68 69 72 75 72 72 73 71 69 68 66 66 67 67 67 66 62 66 65 65 65 65 65 64 64 64 65 64 60 62 64 59 55 53 52 54 54 59 60 55 53 52 56
69 70 73 73 72 72 72 71 69 69 69 68 67 66 66 62 60 62 65 64 65 65 65 65 65 65 64 62 62 62 62 61 60 57 54 58 61 58 55 54 53 52 51
72 72 73 73 72 71 71 70 70 67 65 67 67 67 65 65 60 61 63 64 64 66 67 68 66 65 64 63 62 61 61 60 60 61 59 58 58 58 59 60 57 55 53
73 73 73 72 71 71 71 70 69 65 67 67 67 67 67 65 60 59 62 65 67 67 65 64 65 64 67 63 61 60 60 60 61 59 60 59 59 59 58 56 57 56 56
72 72 72 71 71 70 70 70 68 67 66 67 67 67 68 67 59 59 61 65 66 64 64 64 64 64 61 58 60 59 59 59 57 57 56 55 55 56 56 54 53 53 53
71 71 72 71 71 70 70 70 69 67 66 65 66 68 64 67 57 57 61 65 64 64 63 63 60 59 58 55 58 58 57 57 57 57 56 56 57 57 58 58 55 56 55
70 71 71 71 71 71 70 69 68 67 67 67 66 67 67 67 66 56 57 64 60 60 63 61 61 57 53 52 53 58 57 56 55 54 51 48 50 52 51 55 56 52 48
72 71 71 71 69 68 69 67 68 67 67 67 67 69 69 69 61 55 54 55 60 62 60 60 61 53 51 51 52 51 50 49 50 49 46 46 47 48 48 49 54 54 51
72 71 70 69 69 68 68 68 66 67 67 67 68 67 66 65 63 54 52 53 55 61 60 52 51 50 49 50 51 49 49 49 49 46 45 46 46 46 50 52 53 57 58
70 69 69 68 67 68 67 67 67 67 66 66 67 63 63 62 61 59 58 55 55 56 53 54 53 52 52 50 51 49 50 49 47 46 45 45 44 43 42 40 37 40 47
69 68 67 67 66 64 60 57 62 59 57 64 59 61 60 59 59 54 54 56 56 53 55 54 52 51 51 51 51 50 49 47 45 44 43 42 41 39 36 36 37 44 49
67 66 65 65 64 63 61 56 44 45 45 46 47 56 53 49 45 44 45 43 44 45 49 50 50 50 49 49 49 47 45 44 44 43 42 40 37 36 34 35 40 45 49
65 64 61 59 60 59 58 56 55 49 43 42 41 43 44 43 42 42 41 41 42 44 48 48 49 49 49 48 46 43 41 41 46 41 39 38 35 34 34 35 40 45 48
60 55 58 57 56 56 56 56 55 55 54 51 43 45 41 41 40 40 40 42 47 46 46 46 47 48 48 45 43 41 41 40 39 38 36 34 33 32 32 34 39 45 47
58 55 55 55 55 55 57 58 55 55 54 51 48 45 43 40 40 41 42 45 43 42 42 43 44 44 44 44 42 42 41 37 35 36 34 32 31 31 32 32 35 43 44
59 58 56 55 57 58 57 55 53 54 53 51 50 50 49 45 45 46 47 47 43 40 42 41 43 44 44 44 40 37 35 35 35 33 32 31 31 31 29 30 31 36 43
55 57 57 54 53 53 53 53 52 52 51 51 50 50 45 46 45 44 44 45 43 43 45 42 44 43 43 38 34 33 33 33 34 32 31 31 31 30 31 31 30 30 36
54 53 52 52 53 54 54 53 52 51 50 49 49 49 44 47 45 45 45 45 45 46 43 45 43 41 35 31 31 33 34 32 33 32 31 31 31 30 30 30 30 30 31
53 54 53 54 54 53 54 51 51 51 49 49 48 47 47 45 46 45 45 44 45 44 44 43 42 37 33 28 32 36 34 32 31 33 32 32 31 31 31 30 30 30 31
54 54 53 54 54 53 52 52 52 49 50 48 47 47 47 46 46 46 45 44 44 42 42 40 36 31 31 27 30 31 34 33 34 32 35 33 32 33 31 30 30 31 31
51 51 51 51 52 52 52 52 51 52 50 48 47 47 44 43 43 43 44 43 43 42 40 38 33 31 31 29 27 28 31 27 34 31 33 34 34 36 31 28 30 29 31
47 50 49 50 50 53 52 51 52 51 48 47 47 43 42 41 42 42 43 42 42 41 39 37 33 31 28 25 26 27 25 27 31 30 30 32 31 30 29 29 29 25 29
Lifted_Index
-7 -7 -7 -7 -7 -7 -7 -6 -5 -3 -3 -3 -3 -3 -3 -2 -2 -2 -2 -1 -1 -1 -1 -1 -1 -1 -0 1 1 2 2 2 3 3 3 3 2 2 2 2 1 1 1
-7 -8 -8 -7 -7 -7 -6 -5 -4 -3 -2 -2 -3 -2 -2 -2 -2 -2 -2 -1 -1 -1 -1 -1 -1 -1 -0 0 1 2 2 2 3 3 3 2 2 2 2 2 1 1 1
-7 -8 -8 -8 -7 -7 -5 -4 -2 -2 -1 -1 -2 -2 -1 -1 -2 -2 -2 -2 -1 -1 -1 -1 -2 -1 -1 -0 0 1 1 2 2 2 2 2 2 2 2 1 1 1 1
-7 -8 -8 -8 -7 -6 -5 -3 -2 -1 -1 -1 -1 -2 -1 -1 -2 -2 -2 -2 -1 -1 -1 -2 -2 -2 -1 -0 0 1 1 1 2 2 2 2 2 1 1 1 1 1 1
-7 -7 -8 -8 -7 -6 -5 -4 -2 -2 -1 -1 -1 -1 -1 -1 -1 -1 -2 -1 -1 -1 -2 -2 -2 -2 -1 -0 1 1 1 1 2 2 2 2 1 1 0 1 1 1 1
-7 -7 -7 -7 -6 -6 -5 -4 -3 -3 -2 -1 -1 -1 -1 -1 -0 -0 -1 -1 -1 -2 -2 -2 -2 -2 -1 0 1 2 2 2 2 2 2 2 1 1 1 1 1 1 1
-7 -7 -7 -7 -6 -6 -5 -5 -5 -4 -3 -2 -2 -1 -1 -1 -1 -0 -0 -0 -1 -1 -2 -2 -1 -1 -1 -0 1 2 2 2 2 2 2 2 1 1 1 1 2 2 2
-7 -7 -7 -7 -6 -6 -6 -5 -5 -5 -4 -4 -2 -2 -2 -2 -2 -1 -1 -0 -1 -1 -0 -0 -0 -0 -1 -1 0 1 1 1 1 2 2 3 3 3 3 3 2 2 2
-7 -7 -7 -7 -6 -6 -6 -5 -5 -5 -5 -4 -3 -2 -2 -2 -2 -2 -1 -1 -0 0 1 1 1 1 1 1 1 1 1 1 2 2 3 4 4 4 3 3 3 2 2
-7 -7 -7 -7 -6 -6 -5 -5 -5 -5 -4 -4 -3 -3 -3 -3 -3 -2 -2 -1 -0 1 1 2 2 2 2 2 2 2 2 2 2 3 3 4 3 3 3 3 3 2 2
-7 -7 -7 -6 -6 -5 -5 -5 -5 -4 -4 -4 -3 -3 -3 -3 -3 -2 -1 -1 -0 0 1 1 1 1 2 2 2 3 3 3 3 3 3 3 3 3 3 3 3 3 3
-7 -7 -6 -6 -5 -5 -5 -4 -4 -4 -4 -4 -4 -4 -3 -3 -2 -1 -0 0 -0 -0 -0 0 0 1 1 2 3 3 4 4 4 4 4 4 4 4 4 4 3 3 4
-7 -6 -5 -5 -5 -5 -4 -4 -4 -4 -4 -4 -4 -3 -3 -2 -2 -1 -0 -0 -0 -0 -0 -0 0 1 1 2 3 4 4 4 4 4 4 4 4 5 5 5 5 4 4
-6 -6 -5 -5 -4 -4 -4 -3 -3 -3 -3 -3 -3 -3 -2 -2 -1 -0 -0 -0 -0 0 0 0 1 1 1 2 3 3 4 4 5 5 5 5 6 6 6 7 7 5 4
-5 -5 -4 -4 -4 -3 -3 -3 -2 -2 -2 -2 -2 -2 -2 -1 -1 -0 -0 -0 -0 0 1 1 1 1 1 2 2 3 4 5 5 5 6 6 7 7 8 8 7 6 4
-5 -4 -4 -3 -3 -2 -2 -1 -1 -0 -0 -0 -1 -1 -1 -1 -1 -0 0 0 0 1 1 1 1 1 1 1 2 3 5 5 6 6 7 7 8 8 9 8 7 5 4
-3 -3 -2 -2 -2 -2 -1 -0 0 1 1 0 0 -0 -0 -0 -0 0 0 1 1 2 2 1 1 1 1 2 3 4 5 6 7 7 8 8 8 9 9 8 7 5 4
-1 -1 -1 -1 -1 -1 -0 -0 0 0 1 1 1 0 0 0 1 1 2 2 2 2 2 2 2 2 3 4 4 5 6 7 8 8 8 9 9 9 9 9 7 6 5
-0 -0 0 -0 -0 -0 -0 -0 -0 -0 0 1 1 1 1 1 2 3 3 3 3 3 4 4 4 4 4 5 6 7 7 8 9 9 9 9 10 10 9 9 8 7 5
-0 -0 0 0 -0 -0 -1 -1 -1 -1 -0 0 1 1 2 2 3 3 4 4 4 5 5 5 5 5 6 7 8 8 9 9 9 10 10 10 10 10 10 9 9 8 7
-1 -0 0 0 -0 -0 -1 -1 -1 -1 -1 -1 -0 1 2 3 3 3 4 4 5 5 6 6 6 6 7 8 9 9 10 10 10 10 10 10 10 10 10 10 9 9 8
-1 -0 -0 -0 -0 -0 -1 -1 -1 -1 -1 -1 -0 1 2 3 3 3 4 5 5 5 6 6 6 7 9 10 10 10 10 10 10 10 10 10 10 10 10 10 10 10 9
-1 -1 -1 -1 -1 -1 -1 -1 -1 -1 -1 -0 0 1 2 3 3 3 4 5 5 6 6 7 8 9 10 11 11 10 10 11 11 11 11 10 10 10 10 10 10 10 10
-0 -0 -0 -1 -1 -0 -1 -1 -1 -1 -0 0 1 2 2 3 3 3 4 5 6 6 7 8 9 11 12 12 12 11 11 12 12 12 11 10 10 10 10 10 10 10 10
1 0 0 -0 -0 -1 -1 -1 -1 -0 0 1 1 2 3 3 4 4 4 5 6 7 8 9 10 12 12 13 13 13 13 13 13 13 12 10 10 10 10 10 10 10 10
2 1 0 -0 -0 -1 -1 -1 -1 -1 0 1 1 2 3 4 4 4 5 5 6 6 8 9 11 12 13 13 13 13 14 14 14 13 12 10 10 10 10 10 10 10 10